User: anonymous   Login
Location: Potawatomi Wildlife Park
(41.2308°N, 86.1050°W)
Time: 02:01:27
(UTC-04:00)
Language:

SL-16 R/B - Orbit

View from above orbital plane
View from above orbital plane
View from above satellite
View from above satellite

Ground track
Ground track

The orbit data is extracted from the following two-line orbital elements,

1 27006U 01056F   16144.81830888 -.00000045  00000-0 -22640-5 0  9997
2 27006  99.2555 293.1820 0013840 243.4600 254.3668 13.70969849723149
Epoch (UTC): 23 May 2016 19:38:21
Eccentricity: 0.0013840
inclination: 99.2555°
perigee height: 986 km
apogee height: 1006 km
right ascension of ascending node: 293.1820°
argument of perigee: 243.4600°
revolutions per day: 13.70969849
mean anomaly at epoch: 254.3668°
orbit number at epoch: 72314

The dashed part of the orbit path shows where the satellite is in the earth's shadow,  

DLR